Time,TemperatureF,DewpointF,PressureIn,WindDirection,WindDirectionDegrees,WindSpeedMPH,WindSpeedGustMPH,Humidity,HourlyPrecipIn,Conditions,Clouds,dailyrainin,SoftwareType,DateUTC
2013-03-14 00:01:00,62.0,60.0,30.09,NNE,12,0.0,-999.0,93,-99.99,,,-99.99,,2013-03-14 10:01:00,
2013-03-14 00:22:00,62.0,60.0,30.09,NNE,12,0.0,-999.0,93,-99.99,,,-99.99,,2013-03-14 10:22:00,
2013-03-14 00:32:00,63.0,61.0,30.08,NNE,12,0.0,-999.0,94,-99.99,,,-99.99,,2013-03-14 10:32:00,
2013-03-14 00:42:00,63.0,61.0,30.08,NNE,12,0.0,-999.0,94,-99.99,,,-99.99,,2013-03-14 10:42:00,
2013-03-14 00:52:00,62.0,60.0,30.08,NNE,12,0.0,-999.0,93,-99.99,,,-99.99,,2013-03-14 10:52:00,
2013-03-14 01:01:00,62.0,60.0,30.08,NNE,12,0.0,-999.0,94,-99.99,,,-99.99,,2013-03-14 11:01:00,
2013-03-14 01:11:00,62.0,60.0,30.08,NNE,12,0.0,-999.0,94,-99.99,,,-99.99,,2013-03-14 11:11:00,
2013-03-14 01:22:00,62.0,60.0,30.08,NNE,12,0.0,-999.0,94,-99.99,,,-99.99,,2013-03-14 11:22:00,
2013-03-14 01:31:00,62.0,60.0,30.06,NNE,12,0.0,-999.0,94,-99.99,,,-99.99,,2013-03-14 11:31:00,
2013-03-14 01:41:00,62.0,60.0,30.06,NNE,12,0.0,-999.0,94,-99.99,,,-99.99,,2013-03-14 11:41:00,
2013-03-14 01:52:00,61.0,59.0,30.05,NNE,12,0.0,-999.0,93,-99.99,,,-99.99,,2013-03-14 11:52:00,
2013-03-14 02:01:00,61.0,59.0,30.05,NNE,12,0.0,-999.0,93,-99.99,,,-99.99,,2013-03-14 12:01:00,
2013-03-14 02:11:00,61.0,59.0,30.05,NNE,12,0.0,-999.0,93,-99.99,,,-99.99,,2013-03-14 12:11:00,
2013-03-14 02:21:00,61.0,59.0,30.04,NNE,12,0.0,-999.0,94,-99.99,,,-99.99,,2013-03-14 12:21:00,
2013-03-14 02:32:00,61.0,59.0,30.04,NNE,12,0.0,-999.0,94,-99.99,,,-99.99,,2013-03-14 12:32:00,
2013-03-14 02:42:00,61.0,59.0,30.04,NNE,12,0.0,-999.0,94,-99.99,,,-99.99,,2013-03-14 12:42:00,
2013-03-14 02:52:00,60.0,58.0,30.03,NNE,12,0.0,-999.0,94,-99.99,,,-99.99,,2013-03-14 12:52:00,
2013-03-14 03:01:00,60.0,58.0,30.03,NNE,12,0.0,-999.0,94,-99.99,,,-99.99,,2013-03-14 13:01:00,
2013-03-14 03:12:00,60.0,58.0,30.03,NNE,12,0.0,-999.0,94,-99.99,,,-99.99,,2013-03-14 13:12:00,
2013-03-14 03:21:00,60.0,58.0,30.02,NNE,12,0.0,-999.0,94,-99.99,,,-99.99,,2013-03-14 13:21:00,
2013-03-14 03:32:00,60.0,58.0,30.02,NNE,12,0.0,-999.0,94,-99.99,,,-99.99,,2013-03-14 13:32:00,
2013-03-14 03:42:00,60.0,58.0,30.02,NNE,12,0.0,-999.0,94,-99.99,,,-99.99,,2013-03-14 13:42:00,
2013-03-14 03:52:00,60.0,58.0,30.01,NNE,12,0.0,-999.0,94,-99.99,,,-99.99,,2013-03-14 13:52:00,
2013-03-14 04:02:00,60.0,58.0,30.01,NNE,12,0.0,-999.0,94,-99.99,,,-99.99,,2013-03-14 14:02:00,
2013-03-14 04:11:00,60.0,58.0,30.01,NNE,12,0.0,-999.0,94,-99.99,,,-99.99,,2013-03-14 14:11:00,
2013-03-14 04:22:00,60.0,58.0,30.02,NNE,12,0.0,-999.0,94,-99.99,,,-99.99,,2013-03-14 14:22:00,
2013-03-14 04:31:00,60.0,58.0,30.02,NNE,12,0.0,-999.0,94,-99.99,,,-99.99,,2013-03-14 14:31:00,
2013-03-14 04:42:00,60.0,58.0,30.02,NNE,12,0.0,-999.0,94,-99.99,,,-99.99,,2013-03-14 14:42:00,
2013-03-14 04:52:00,59.0,57.0,30.02,NNE,12,0.0,-999.0,94,-99.99,,,-99.99,,2013-03-14 14:52:00,
2013-03-14 05:01:00,59.0,57.0,30.02,NNE,12,0.0,-999.0,94,-99.99,,,-99.99,,2013-03-14 15:01:00,
2013-03-14 05:11:00,59.0,57.0,30.02,NNE,12,0.0,-999.0,94,-99.99,,,-99.99,,2013-03-14 15:11:00,
2013-03-14 05:22:00,59.0,57.0,30.03,NNE,12,0.0,-999.0,94,-99.99,,,-99.99,,2013-03-14 15:22:00,
2013-03-14 05:32:00,60.0,58.0,30.03,North,5,0.0,-999.0,94,-99.99,,,-99.99,,2013-03-14 15:32:00,
2013-03-14 05:42:00,60.0,58.0,30.03,North,5,0.0,-999.0,94,-99.99,,,-99.99,,2013-03-14 15:42:00,
2013-03-14 05:52:00,60.0,58.0,30.04,North,5,0.0,-999.0,94,-99.99,,,-99.99,,2013-03-14 15:52:00,
2013-03-14 06:02:00,60.0,58.0,30.05,North,5,0.0,-999.0,94,-99.99,,,-99.99,,2013-03-14 16:02:00,
2013-03-14 06:12:00,60.0,58.0,30.05,North,5,0.0,-999.0,94,-99.99,,,-99.99,,2013-03-14 16:12:00,
2013-03-14 06:22:00,61.0,60.0,30.06,North,5,0.0,-999.0,95,-99.99,,,-99.99,,2013-03-14 16:22:00,
2013-03-14 06:32:00,61.0,59.0,30.06,North,5,0.0,-999.0,94,-99.99,,,-99.99,,2013-03-14 16:32:00,
2013-03-14 06:41:00,61.0,59.0,30.06,North,5,0.0,-999.0,94,-99.99,,,-99.99,,2013-03-14 16:41:00,
2013-03-14 06:52:00,61.0,59.0,30.07,North,5,0.0,-999.0,94,-99.99,,,-99.99,,2013-03-14 16:52:00,
2013-03-14 07:01:00,61.0,59.0,30.07,North,5,0.0,-999.0,94,-99.99,,,-99.99,,2013-03-14 17:01:00,
2013-03-14 07:12:00,61.0,59.0,30.07,North,5,0.0,-999.0,94,-99.99,,,-99.99,,2013-03-14 17:12:00,
2013-03-14 07:22:00,61.0,59.0,30.09,North,5,0.0,-999.0,94,-99.99,,,-99.99,,2013-03-14 17:22:00,
2013-03-14 07:31:00,61.0,59.0,30.09,North,5,0.0,-999.0,94,-99.99,,,-99.99,,2013-03-14 17:31:00,
2013-03-14 07:41:00,61.0,59.0,30.09,North,5,0.0,-999.0,94,-99.99,,,-99.99,,2013-03-14 17:41:00,
2013-03-14 07:52:00,61.0,59.0,30.09,North,5,0.0,-999.0,94,-99.99,,,-99.99,,2013-03-14 17:52:00,
2013-03-14 08:02:00,62.0,60.0,30.09,North,5,0.0,-999.0,94,-99.99,,,-99.99,,2013-03-14 18:02:00,
2013-03-14 08:12:00,62.0,60.0,30.09,North,5,0.0,-999.0,94,-99.99,,,-99.99,,2013-03-14 18:12:00,
2013-03-14 08:22:00,64.0,62.0,30.09,North,5,0.0,-999.0,94,-99.99,,,-99.99,,2013-03-14 18:22:00,
2013-03-14 08:32:00,66.0,64.0,30.09,North,5,0.0,-999.0,93,-99.99,,,-99.99,,2013-03-14 18:32:00,
2013-03-14 08:42:00,66.0,64.0,30.09,North,5,0.0,-999.0,93,-99.99,,,-99.99,,2013-03-14 18:42:00,
2013-03-14 08:52:00,69.0,66.0,30.10,North,5,0.0,-999.0,89,-99.99,,,-99.99,,2013-03-14 18:52:00,
2013-03-14 09:01:00,72.0,66.0,30.10,SE,143,0.0,-999.0,81,-99.99,,,-99.99,,2013-03-14 19:01:00,
2013-03-14 09:12:00,72.0,66.0,30.10,SE,143,0.0,-999.0,81,-99.99,,,-99.99,,2013-03-14 19:12:00,
2013-03-14 09:22:00,73.0,65.0,30.10,ESE,117,0.0,-999.0,76,-99.99,,,-99.99,,2013-03-14 19:22:00,
2013-03-14 09:32:00,74.0,65.0,30.09,ESE,109,0.0,-999.0,74,-99.99,,,-99.99,,2013-03-14 19:32:00,
2013-03-14 09:42:00,74.0,65.0,30.09,ESE,109,0.0,-999.0,74,-99.99,,,-99.99,,2013-03-14 19:42:00,
2013-03-14 09:52:00,74.0,66.0,30.10,East,88,0.0,-999.0,76,-99.99,,,-99.99,,2013-03-14 19:52:00,
2013-03-14 10:01:00,74.0,66.0,30.09,NNE,32,1.0,-999.0,76,-99.99,,,-99.99,,2013-03-14 20:01:00,
2013-03-14 10:11:00,74.0,66.0,30.09,NNE,32,1.0,-999.0,76,-99.99,,,-99.99,,2013-03-14 20:11:00,
2013-03-14 10:21:00,75.0,66.0,30.09,NNW,332,0.0,-999.0,74,-99.99,,,-99.99,,2013-03-14 20:21:00,
2013-03-14 10:31:00,74.0,66.0,30.08,NE,40,1.0,-999.0,77,-99.99,,,-99.99,,2013-03-14 20:31:00,
2013-03-14 10:42:00,74.0,66.0,30.08,NE,40,1.0,-999.0,77,-99.99,,,-99.99,,2013-03-14 20:42:00,
2013-03-14 10:52:00,74.0,66.0,30.07,ENE,69,3.0,-999.0,76,-99.99,,,-99.99,,2013-03-14 20:52:00,
2013-03-14 11:02:00,74.0,66.0,30.06,ENE,60,3.0,-999.0,77,-99.99,,,-99.99,,2013-03-14 21:02:00,
2013-03-14 11:12:00,74.0,66.0,30.06,ENE,60,3.0,-999.0,77,-99.99,,,-99.99,,2013-03-14 21:12:00,
2013-03-14 11:21:00,74.0,66.0,30.06,ENE,66,3.0,-999.0,77,-99.99,,,-99.99,,2013-03-14 21:21:00,
2013-03-14 11:32:00,75.0,67.0,30.06,NE,53,2.0,-999.0,76,-99.99,,,-99.99,,2013-03-14 21:32:00,
2013-03-14 11:43:00,75.0,67.0,30.06,NE,53,2.0,-999.0,76,-99.99,,,-99.99,,2013-03-14 21:43:00,
2013-03-14 11:53:00,75.0,67.0,30.05,NNE,26,2.0,-999.0,75,-99.99,,,-99.99,,2013-03-14 21:53:00,
2013-03-14 12:03:00,74.0,67.0,30.05,NNE,28,2.0,-999.0,78,-99.99,,,-99.99,,2013-03-14 22:03:00,
2013-03-14 12:12:00,74.0,67.0,30.05,NNE,28,2.0,-999.0,78,-99.99,,,-99.99,,2013-03-14 22:12:00,
2013-03-14 12:23:00,75.0,67.0,30.03,North,5,3.0,-999.0,77,-99.99,,,-99.99,,2013-03-14 22:23:00,
2013-03-14 12:32:00,75.0,68.0,30.03,NNE,22,2.0,-999.0,78,-99.99,,,-99.99,,2013-03-14 22:32:00,
2013-03-14 12:41:00,75.0,68.0,30.03,NNE,22,2.0,-999.0,78,-99.99,,,-99.99,,2013-03-14 22:41:00,
2013-03-14 12:52:00,76.0,68.0,30.02,East,86,2.0,-999.0,76,-99.99,,,-99.99,,2013-03-14 22:52:00,
2013-03-14 13:02:00,76.0,67.0,30.01,North,11,2.0,-999.0,74,-99.99,,,-99.99,,2013-03-14 23:02:00,
2013-03-14 13:11:00,76.0,67.0,30.01,North,11,2.0,-999.0,74,-99.99,,,-99.99,,2013-03-14 23:11:00,
2013-03-14 13:21:00,76.0,67.0,30.01,NNE,23,2.0,-999.0,73,-99.99,,,-99.99,,2013-03-14 23:21:00,
2013-03-14 13:32:00,77.0,67.0,30.01,North,350,1.0,-999.0,71,-99.99,,,-99.99,,2013-03-14 23:32:00,
2013-03-14 13:42:00,77.0,67.0,30.01,North,350,1.0,-999.0,71,-99.99,,,-99.99,,2013-03-14 23:42:00,
2013-03-14 13:53:00,77.0,67.0,30.01,SE,141,1.0,-999.0,71,-99.99,,,-99.99,,2013-03-14 23:53:00,
2013-03-14 14:01:00,76.0,67.0,30.00,East,97,0.0,-999.0,73,-99.99,,,-99.99,,2013-03-15 00:01:00,
2013-03-14 14:11:00,75.0,67.0,30.00,SE,141,1.0,-999.0,75,-99.99,,,-99.99,,2013-03-15 00:11:00,
2013-03-14 14:22:00,75.0,67.0,30.00,SE,141,1.0,-999.0,75,-99.99,,,-99.99,,2013-03-15 00:22:00,
2013-03-14 14:31:00,76.0,67.0,30.00,SSW,207,1.0,-999.0,75,-99.99,,,-99.99,,2013-03-15 00:31:00,
2013-03-14 14:42:00,76.0,67.0,30.00,SSW,207,1.0,-999.0,75,-99.99,,,-99.99,,2013-03-15 00:42:00,
2013-03-14 14:52:00,75.0,66.0,29.99,SW,215,1.0,-999.0,74,-99.99,,,-99.99,,2013-03-15 00:52:00,
2013-03-14 15:01:00,75.0,67.0,29.98,SSW,206,0.0,-999.0,76,-99.99,,,-99.99,,2013-03-15 01:01:00,
2013-03-14 15:11:00,75.0,67.0,29.98,SSW,206,0.0,-999.0,76,-99.99,,,-99.99,,2013-03-15 01:11:00,
2013-03-14 15:21:00,74.0,66.0,29.98,South,191,0.0,-999.0,76,-99.99,,,-99.99,,2013-03-15 01:21:00,
2013-03-14 15:32:00,74.0,66.0,29.97,East,97,0.0,-999.0,77,-99.99,,,-99.99,,2013-03-15 01:32:00,
2013-03-14 15:42:00,74.0,66.0,29.97,East,97,0.0,-999.0,77,-99.99,,,-99.99,,2013-03-15 01:42:00,
2013-03-14 15:52:00,74.0,66.0,29.97,South,182,0.0,-999.0,76,-99.99,,,-99.99,,2013-03-15 01:52:00,
2013-03-14 16:02:00,75.0,68.0,29.97,East,98,0.0,-999.0,78,-99.99,,,-99.99,,2013-03-15 02:02:00,
2013-03-14 16:11:00,75.0,68.0,29.97,East,98,0.0,-999.0,78,-99.99,,,-99.99,,2013-03-15 02:11:00,
2013-03-14 16:22:00,74.0,66.0,29.98,ESE,120,0.0,-999.0,77,-99.99,,,-99.99,,2013-03-15 02:22:00,
2013-03-14 16:32:00,74.0,67.0,29.97,ENE,72,1.0,-999.0,79,-99.99,,,-99.99,,2013-03-15 02:32:00,
2013-03-14 16:42:00,74.0,67.0,29.97,ENE,72,1.0,-999.0,79,-99.99,,,-99.99,,2013-03-15 02:42:00,
2013-03-14 16:52:00,72.0,65.0,29.98,ESE,123,0.0,-999.0,80,-99.99,,,-99.99,,2013-03-15 02:52:00,
2013-03-14 17:01:00,73.0,67.0,29.98,SW,231,0.0,-999.0,81,-99.99,,,-99.99,,2013-03-15 03:01:00,
2013-03-14 17:11:00,73.0,67.0,29.98,SW,231,0.0,-999.0,81,-99.99,,,-99.99,,2013-03-15 03:11:00,
2013-03-14 17:22:00,72.0,66.0,29.99,South,175,0.0,-999.0,82,-99.99,,,-99.99,,2013-03-15 03:22:00,
2013-03-14 17:32:00,72.0,67.0,29.99,East,90,0.0,-999.0,83,-99.99,,,-99.99,,2013-03-15 03:32:00,
2013-03-14 17:42:00,72.0,67.0,29.99,East,90,0.0,-999.0,83,-99.99,,,-99.99,,2013-03-15 03:42:00,
2013-03-14 17:52:00,71.0,66.0,30.00,North,360,0.0,-999.0,85,-99.99,,,-99.99,,2013-03-15 03:52:00,
2013-03-14 18:02:00,69.0,66.0,30.01,ENE,70,2.0,-999.0,91,-99.99,,,-99.99,,2013-03-15 04:02:00,
2013-03-14 18:12:00,69.0,66.0,30.01,ENE,70,2.0,-999.0,91,-99.99,,,-99.99,,2013-03-15 04:12:00,
2013-03-14 18:22:00,68.0,66.0,30.01,WSW,257,0.0,-999.0,93,-99.99,,,-99.99,,2013-03-15 04:22:00,
2013-03-14 18:32:00,67.0,65.0,30.01,NE,55,0.0,-999.0,94,-99.99,,,-99.99,,2013-03-15 04:32:00,
2013-03-14 18:42:00,67.0,65.0,30.01,NE,55,0.0,-999.0,94,-99.99,,,-99.99,,2013-03-15 04:42:00,
2013-03-14 18:53:00,68.0,66.0,30.02,NE,42,0.0,-999.0,94,-99.99,,,-99.99,,2013-03-15 04:53:00,
2013-03-14 19:02:00,67.0,65.0,30.02,NE,42,0.0,-999.0,94,-99.99,,,-99.99,,2013-03-15 05:02:00,
2013-03-14 19:12:00,67.0,65.0,30.02,NE,42,0.0,-999.0,94,-99.99,,,-99.99,,2013-03-15 05:12:00,
2013-03-14 19:22:00,67.0,65.0,30.02,NE,42,0.0,-999.0,94,-99.99,,,-99.99,,2013-03-15 05:22:00,
2013-03-14 19:31:00,67.0,66.0,30.02,NE,42,0.0,-999.0,95,-99.99,,,-99.99,,2013-03-15 05:31:00,
2013-03-14 19:42:00,67.0,66.0,30.02,NE,42,0.0,-999.0,95,-99.99,,,-99.99,,2013-03-15 05:42:00,
2013-03-14 19:52:00,67.0,65.0,30.03,NE,42,0.0,-999.0,94,-99.99,,,-99.99,,2013-03-15 05:52:00,
2013-03-14 20:02:00,67.0,66.0,30.02,NE,42,0.0,-999.0,95,-99.99,,,-99.99,,2013-03-15 06:02:00,
2013-03-14 20:11:00,67.0,66.0,30.02,NE,42,0.0,-999.0,95,-99.99,,,-99.99,,2013-03-15 06:11:00,
2013-03-14 20:22:00,67.0,66.0,30.03,NE,42,0.0,-999.0,95,-99.99,,,-99.99,,2013-03-15 06:22:00,
2013-03-14 20:32:00,67.0,66.0,30.03,NE,42,0.0,-999.0,95,-99.99,,,-99.99,,2013-03-15 06:32:00,
2013-03-14 20:41:00,67.0,66.0,30.03,NE,42,0.0,-999.0,95,-99.99,,,-99.99,,2013-03-15 06:41:00,
2013-03-14 20:52:00,67.0,66.0,30.03,NE,42,0.0,-999.0,95,-99.99,,,-99.99,,2013-03-15 06:52:00,
2013-03-14 21:01:00,67.0,66.0,30.03,NE,42,0.0,-999.0,95,-99.99,,,-99.99,,2013-03-15 07:01:00,
2013-03-14 21:11:00,67.0,66.0,30.03,NE,42,0.0,-999.0,95,-99.99,,,-99.99,,2013-03-15 07:11:00,
2013-03-14 21:21:00,67.0,66.0,30.03,NE,42,0.0,-999.0,95,-99.99,,,-99.99,,2013-03-15 07:21:00,
2013-03-14 21:31:00,66.0,65.0,30.03,NE,42,0.0,-999.0,95,-99.99,,,-99.99,,2013-03-15 07:31:00,
2013-03-14 21:42:00,66.0,65.0,30.03,NE,42,0.0,-999.0,95,-99.99,,,-99.99,,2013-03-15 07:42:00,
2013-03-14 21:52:00,67.0,66.0,30.04,NE,42,0.0,-999.0,95,-99.99,,,-99.99,,2013-03-15 07:52:00,
2013-03-14 22:02:00,67.0,66.0,30.03,NE,42,0.0,-999.0,95,-99.99,,,-99.99,,2013-03-15 08:02:00,
2013-03-14 22:12:00,67.0,66.0,30.03,NE,42,0.0,-999.0,95,-99.99,,,-99.99,,2013-03-15 08:12:00,
2013-03-14 22:22:00,67.0,66.0,30.03,NE,42,0.0,-999.0,95,-99.99,,,-99.99,,2013-03-15 08:22:00,
2013-03-14 22:31:00,67.0,66.0,30.03,NE,42,0.0,-999.0,95,-99.99,,,-99.99,,2013-03-15 08:31:00,
2013-03-14 22:41:00,67.0,66.0,30.03,NE,42,0.0,-999.0,95,-99.99,,,-99.99,,2013-03-15 08:41:00,
2013-03-14 22:52:00,67.0,66.0,30.03,NE,42,0.0,-999.0,95,-99.99,,,-99.99,,2013-03-15 08:52:00,
2013-03-14 23:01:00,67.0,66.0,30.03,South,191,0.0,-999.0,95,-99.99,,,-99.99,,2013-03-15 09:01:00,
2013-03-14 23:11:00,67.0,66.0,30.03,South,191,0.0,-999.0,95,-99.99,,,-99.99,,2013-03-15 09:11:00,
2013-03-14 23:21:00,67.0,66.0,30.03,SSW,192,0.0,-999.0,95,-99.99,,,-99.99,,2013-03-15 09:21:00,
2013-03-14 23:33:00,67.0,66.0,30.02,SSW,192,0.0,-999.0,95,-99.99,,,-99.99,,2013-03-15 09:33:00,
2013-03-14 23:42:00,67.0,66.0,30.02,SSW,192,0.0,-999.0,95,-99.99,,,-99.99,,2013-03-15 09:42:00,
2013-03-14 23:53:00,67.0,66.0,30.01,SSW,192,0.0,-999.0,95,-99.99,,,-99.99,,2013-03-15 09:53:00,